#datetime,building,power
2022-10-13T00:01:00,pth,14.40
2022-10-13T00:03:00,pth,13.20
2022-10-13T00:05:00,pth,13.20
2022-10-13T00:06:00,pth,7.20
2022-10-13T00:08:00,pth,13.20
2022-10-13T00:09:00,pth,7.20
2022-10-13T00:11:00,pth,13.20
2022-10-13T00:13:00,pth,14.40
2022-10-13T00:15:00,pth,13.20
2022-10-13T00:17:00,pth,8.40
2022-10-13T00:18:00,pth,6.00
2022-10-13T00:20:00,pth,13.20
2022-10-13T00:22:00,pth,7.20
2022-10-13T00:23:00,pth,6.00
2022-10-13T00:25:00,pth,12.00
2022-10-13T00:27:00,pth,8.40
2022-10-13T00:29:00,pth,13.20
2022-10-13T00:31:00,pth,7.20
2022-10-13T00:32:00,pth,7.20
2022-10-13T00:34:00,pth,8.40
2022-10-13T00:36:00,pth,10.80
2022-10-13T00:38:00,pth,10.80
2022-10-13T00:40:00,pth,8.40
2022-10-13T00:42:00,pth,4.80
2022-10-13T00:43:00,pth,1.20
2022-10-13T00:45:00,pth,2.40
2022-10-13T00:47:00,pth,2.40
2022-10-13T00:48:00,pth,1.20
2022-10-13T00:50:00,pth,2.40
2022-10-13T00:52:00,pth,1.20
2022-10-13T00:53:00,pth,2.40
2022-10-13T00:55:00,pth,3.60
2022-10-13T00:56:00,pth,1.20
2022-10-13T00:58:00,pth,3.60
2022-10-13T01:00:00,pth,2.40
2022-10-13T01:01:00,pth,1.20
2022-10-13T01:02:00,pth,1.20
2022-10-13T01:04:00,pth,2.40
2022-10-13T01:06:00,pth,3.60
2022-10-13T01:08:00,pth,2.40
2022-10-13T01:09:00,pth,1.20
2022-10-13T01:11:00,pth,2.40
2022-10-13T01:13:00,pth,2.40
2022-10-13T01:15:00,pth,2.40
2022-10-13T01:16:00,pth,1.20
2022-10-13T01:18:00,pth,2.40
2022-10-13T01:19:00,pth,1.20
2022-10-13T01:21:00,pth,2.40
2022-10-13T01:23:00,pth,2.40
2022-10-13T01:24:00,pth,1.20
2022-10-13T01:25:00,pth,1.20
2022-10-13T01:28:00,pth,2.40
2022-10-13T01:30:00,pth,2.40
2022-10-13T01:31:00,pth,1.20
2022-10-13T01:33:00,pth,2.40
2022-10-13T01:34:00,pth,1.20
2022-10-13T01:35:00,pth,1.20
2022-10-13T01:37:00,pth,2.40
2022-10-13T01:39:00,pth,1.20
2022-10-13T01:41:00,pth,2.40
2022-10-13T01:43:00,pth,2.40
2022-10-13T01:46:00,pth,2.40
2022-10-13T01:47:00,pth,1.20
2022-10-13T01:48:00,pth,1.20
2022-10-13T01:49:00,pth,1.20
2022-10-13T01:51:00,pth,1.20
2022-10-13T01:53:00,pth,2.40
2022-10-13T01:54:00,pth,1.20
2022-10-13T01:56:00,pth,1.20
2022-10-13T01:58:00,pth,2.40
2022-10-13T01:59:00,pth,1.20
2022-10-13T02:01:00,pth,2.40
2022-10-13T02:02:00,pth,1.20
2022-10-13T02:04:00,pth,2.40
2022-10-13T02:06:00,pth,2.40
2022-10-13T02:08:00,pth,2.40
2022-10-13T02:09:00,pth,1.20
2022-10-13T02:11:00,pth,2.40
2022-10-13T02:12:00,pth,2.40
2022-10-13T02:13:00,pth,2.40
2022-10-13T02:15:00,pth,1.20
2022-10-13T02:16:00,pth,1.20
2022-10-13T02:17:00,pth,1.20
2022-10-13T02:19:00,pth,1.20
2022-10-13T02:21:00,pth,2.40
2022-10-13T02:23:00,pth,1.20
2022-10-13T02:24:00,pth,1.20
2022-10-13T02:26:00,pth,2.40
2022-10-13T02:28:00,pth,1.20
2022-10-13T02:30:00,pth,2.40
2022-10-13T02:32:00,pth,1.20
2022-10-13T02:33:00,pth,1.20
2022-10-13T02:35:00,pth,2.40
2022-10-13T02:36:00,pth,1.20
2022-10-13T02:38:00,pth,2.40
2022-10-13T02:40:00,pth,1.20
2022-10-13T02:42:00,pth,2.40
2022-10-13T02:44:00,pth,2.40
2022-10-13T02:47:00,pth,2.40
2022-10-13T02:48:00,pth,1.20
2022-10-13T02:50:00,pth,1.20
2022-10-13T02:51:00,pth,1.20
2022-10-13T02:52:00,pth,1.20
2022-10-13T02:54:00,pth,2.40
2022-10-13T02:56:00,pth,1.20
2022-10-13T02:57:00,pth,1.20
2022-10-13T02:59:00,pth,2.40
2022-10-13T03:01:00,pth,2.40
2022-10-13T03:02:00,pth,1.20
2022-10-13T03:04:00,pth,2.40
2022-10-13T03:05:00,pth,1.20
2022-10-13T03:07:00,pth,2.40
2022-10-13T03:09:00,pth,2.40
2022-10-13T03:10:00,pth,1.20
2022-10-13T03:12:00,pth,2.40
2022-10-13T03:13:00,pth,1.20
2022-10-13T03:15:00,pth,1.20
2022-10-13T03:16:00,pth,1.20
2022-10-13T03:18:00,pth,2.40
2022-10-13T03:20:00,pth,2.40
2022-10-13T03:22:00,pth,1.20
2022-10-13T03:24:00,pth,2.40
2022-10-13T03:25:00,pth,1.20
2022-10-13T03:27:00,pth,1.20
2022-10-13T03:29:00,pth,2.40
2022-10-13T03:31:00,pth,2.40
2022-10-13T03:33:00,pth,1.20
2022-10-13T03:34:00,pth,1.20
2022-10-13T03:36:00,pth,1.20
2022-10-13T03:38:00,pth,2.40
2022-10-13T03:39:00,pth,1.20
2022-10-13T03:41:00,pth,1.20
2022-10-13T03:43:00,pth,2.40
2022-10-13T03:45:00,pth,2.40
2022-10-13T03:46:00,pth,1.20
2022-10-13T03:49:00,pth,2.40
2022-10-13T03:51:00,pth,2.40
2022-10-13T03:53:00,pth,1.20
2022-10-13T03:54:00,pth,1.20
2022-10-13T03:56:00,pth,2.40
2022-10-13T03:57:00,pth,1.20
2022-10-13T04:00:00,pth,2.40
2022-10-13T04:02:00,pth,2.40
2022-10-13T04:04:00,pth,2.40
2022-10-13T04:05:00,pth,1.20
2022-10-13T04:06:00,pth,1.20
2022-10-13T04:07:00,pth,1.20
2022-10-13T04:09:00,pth,1.20
2022-10-13T04:11:00,pth,2.40
2022-10-13T04:13:00,pth,2.40
2022-10-13T04:15:00,pth,2.40
2022-10-13T04:16:00,pth,1.20
2022-10-13T04:18:00,pth,1.20
2022-10-13T04:20:00,pth,2.40
2022-10-13T04:22:00,pth,2.40
2022-10-13T04:24:00,pth,1.20
2022-10-13T04:25:00,pth,1.20
2022-10-13T04:26:00,pth,1.20
2022-10-13T04:28:00,pth,1.20
2022-10-13T04:29:00,pth,1.20
2022-10-13T04:31:00,pth,1.20
2022-10-13T04:32:00,pth,1.20
2022-10-13T04:34:00,pth,2.40
2022-10-13T04:36:00,pth,1.20
2022-10-13T04:38:00,pth,2.40
2022-10-13T04:39:00,pth,1.20
2022-10-13T04:41:00,pth,2.40
2022-10-13T04:43:00,pth,1.20
2022-10-13T04:45:00,pth,2.40
2022-10-13T04:46:00,pth,1.20
2022-10-13T04:48:00,pth,1.20
2022-10-13T04:49:00,pth,1.20
2022-10-13T04:51:00,pth,2.40
2022-10-13T04:53:00,pth,2.40
2022-10-13T04:55:00,pth,1.20
2022-10-13T04:57:00,pth,2.40
2022-10-13T04:58:00,pth,1.20
2022-10-13T05:00:00,pth,1.20
2022-10-13T05:01:00,pth,1.20
2022-10-13T05:03:00,pth,2.40
2022-10-13T05:04:00,pth,1.20
2022-10-13T05:06:00,pth,1.20
2022-10-13T05:08:00,pth,2.40
2022-10-13T05:10:00,pth,2.40
2022-10-13T05:11:00,pth,1.20
2022-10-13T05:12:00,pth,1.20
2022-10-13T05:13:00,pth,1.20
2022-10-13T05:15:00,pth,2.40
2022-10-13T05:16:00,pth,1.20
2022-10-13T05:18:00,pth,1.20
2022-10-13T05:19:00,pth,1.20
2022-10-13T05:21:00,pth,2.40
2022-10-13T05:23:00,pth,2.40
2022-10-13T05:24:00,pth,1.20
2022-10-13T05:26:00,pth,2.40
2022-10-13T05:28:00,pth,1.20
2022-10-13T05:30:00,pth,2.40
2022-10-13T05:31:00,pth,1.20
2022-10-13T05:33:00,pth,1.20
2022-10-13T05:35:00,pth,2.40
2022-10-13T05:36:00,pth,1.20
2022-10-13T05:38:00,pth,1.20
2022-10-13T05:40:00,pth,2.40
2022-10-13T05:41:00,pth,1.20
2022-10-13T05:42:00,pth,1.20
2022-10-13T05:44:00,pth,1.20
2022-10-13T05:46:00,pth,2.40
2022-10-13T05:48:00,pth,1.20
2022-10-13T05:49:00,pth,1.20
2022-10-13T05:51:00,pth,2.40
2022-10-13T05:52:00,pth,1.20
2022-10-13T05:54:00,pth,1.20
2022-10-13T05:56:00,pth,2.40
2022-10-13T05:58:00,pth,2.40
2022-10-13T06:00:00,pth,1.20
2022-10-13T06:01:00,pth,1.20
2022-10-13T06:03:00,pth,2.40
2022-10-13T06:05:00,pth,1.20
2022-10-13T06:06:00,pth,1.20
2022-10-13T06:08:00,pth,2.40
2022-10-13T06:10:00,pth,1.20
2022-10-13T06:11:00,pth,1.20
2022-10-13T06:13:00,pth,2.40
2022-10-13T06:15:00,pth,1.20
2022-10-13T06:17:00,pth,2.40
2022-10-13T06:19:00,pth,2.40
2022-10-13T06:21:00,pth,2.40
2022-10-13T06:23:00,pth,2.40
2022-10-13T06:25:00,pth,2.40
2022-10-13T06:27:00,pth,2.40
2022-10-13T06:29:00,pth,2.40
2022-10-13T06:31:00,pth,1.20
2022-10-13T06:33:00,pth,2.40
2022-10-13T06:35:00,pth,2.40
2022-10-13T06:37:00,pth,2.40
2022-10-13T06:38:00,pth,1.20
2022-10-13T06:40:00,pth,2.40
2022-10-13T06:42:00,pth,1.20
2022-10-13T06:44:00,pth,2.40
2022-10-13T06:46:00,pth,2.40
2022-10-13T06:47:00,pth,1.20
2022-10-13T06:49:00,pth,1.20
2022-10-13T06:51:00,pth,2.40
2022-10-13T06:53:00,pth,2.40
2022-10-13T06:55:00,pth,1.20
2022-10-13T06:56:00,pth,1.20
2022-10-13T06:58:00,pth,2.40
2022-10-13T06:59:00,pth,1.20
2022-10-13T07:01:00,pth,2.40
2022-10-13T07:02:00,pth,1.20
2022-10-13T07:03:00,pth,1.20
2022-10-13T07:05:00,pth,2.40
2022-10-13T07:07:00,pth,1.20
2022-10-13T07:08:00,pth,1.20
2022-10-13T07:10:00,pth,2.40
2022-10-13T07:11:00,pth,1.20
2022-10-13T07:13:00,pth,2.40
2022-10-13T07:14:00,pth,1.20
2022-10-13T07:16:00,pth,1.20
2022-10-13T07:18:00,pth,2.40
2022-10-13T07:20:00,pth,2.40
2022-10-13T07:22:00,pth,2.40
2022-10-13T07:24:00,pth,2.40
2022-10-13T07:26:00,pth,2.40
2022-10-13T07:28:00,pth,2.40
2022-10-13T07:30:00,pth,2.40
2022-10-13T07:31:00,pth,1.20
2022-10-13T07:33:00,pth,1.20
2022-10-13T07:34:00,pth,1.20
2022-10-13T07:36:00,pth,2.40
2022-10-13T07:38:00,pth,2.40
2022-10-13T07:39:00,pth,1.20
2022-10-13T07:41:00,pth,1.20
2022-10-13T07:43:00,pth,2.40
2022-10-13T07:45:00,pth,2.40
2022-10-13T07:47:00,pth,1.20
2022-10-13T07:49:00,pth,2.40
2022-10-13T07:51:00,pth,1.20
2022-10-13T07:53:00,pth,2.40
2022-10-13T07:56:00,pth,2.40
2022-10-13T07:58:00,pth,1.20
2022-10-13T07:59:00,pth,1.20
2022-10-13T08:01:00,pth,1.20
2022-10-13T08:02:00,pth,1.20
2022-10-13T08:04:00,pth,1.20
2022-10-13T08:06:00,pth,2.40
2022-10-13T08:08:00,pth,1.20
2022-10-13T08:09:00,pth,1.20
2022-10-13T08:11:00,pth,1.20
2022-10-13T08:12:00,pth,1.20
2022-10-13T08:14:00,pth,1.20
2022-10-13T08:16:00,pth,2.40
2022-10-13T08:18:00,pth,1.20
2022-10-13T08:19:00,pth,1.20
2022-10-13T08:21:00,pth,1.20
2022-10-13T08:23:00,pth,1.20
2022-10-13T08:25:00,pth,2.40
2022-10-13T08:27:00,pth,1.20
2022-10-13T08:29:00,pth,2.40
2022-10-13T08:31:00,pth,1.20
2022-10-13T08:33:00,pth,1.20
2022-10-13T08:34:00,pth,1.20
2022-10-13T08:36:00,pth,1.20
2022-10-13T08:37:00,pth,1.20
2022-10-13T08:39:00,pth,1.20
2022-10-13T08:41:00,pth,1.20
2022-10-13T08:42:00,pth,1.20
2022-10-13T08:44:00,pth,1.20
2022-10-13T08:46:00,pth,1.20
2022-10-13T08:47:00,pth,1.20
2022-10-13T08:50:00,pth,2.40
2022-10-13T08:53:00,pth,1.20
2022-10-13T08:54:00,pth,1.20
2022-10-13T08:56:00,pth,1.20
2022-10-13T08:58:00,pth,1.20
2022-10-13T09:00:00,pth,1.20
2022-10-13T09:02:00,pth,1.20
2022-10-13T09:04:00,pth,2.40
2022-10-13T09:06:00,pth,1.20
2022-10-13T09:08:00,pth,1.20
2022-10-13T09:10:00,pth,1.20
2022-10-13T09:12:00,pth,2.40
2022-10-13T09:14:00,pth,2.40
2022-10-13T09:16:00,pth,1.20
2022-10-13T09:18:00,pth,2.40
2022-10-13T09:20:00,pth,1.20
2022-10-13T09:21:00,pth,1.20
2022-10-13T09:23:00,pth,1.20
2022-10-13T09:25:00,pth,1.20
2022-10-13T09:27:00,pth,1.20
2022-10-13T09:29:00,pth,1.20
2022-10-13T09:30:00,pth,1.20
2022-10-13T09:32:00,pth,1.20
2022-10-13T09:33:00,pth,1.20
2022-10-13T09:35:00,pth,2.40
2022-10-13T09:37:00,pth,2.40
2022-10-13T09:39:00,pth,1.20
2022-10-13T09:40:00,pth,1.20
2022-10-13T09:42:00,pth,1.20
2022-10-13T09:44:00,pth,2.40
2022-10-13T09:46:00,pth,1.20
2022-10-13T09:47:00,pth,1.20
2022-10-13T09:49:00,pth,1.20
2022-10-13T09:51:00,pth,2.40
2022-10-13T09:54:00,pth,2.40
2022-10-13T09:57:00,pth,2.40
2022-10-13T09:59:00,pth,2.40
2022-10-13T10:01:00,pth,1.20
2022-10-13T10:02:00,pth,1.20
2022-10-13T10:04:00,pth,2.40
2022-10-13T10:06:00,pth,1.20
2022-10-13T10:08:00,pth,2.40
2022-10-13T10:09:00,pth,1.20
2022-10-13T10:11:00,pth,1.20
2022-10-13T10:13:00,pth,2.40
2022-10-13T10:15:00,pth,1.20
2022-10-13T10:17:00,pth,1.20
2022-10-13T10:19:00,pth,1.20
2022-10-13T10:20:00,pth,1.20
2022-10-13T10:22:00,pth,1.20
2022-10-13T10:24:00,pth,2.40
2022-10-13T10:26:00,pth,1.20
2022-10-13T10:28:00,pth,1.20
2022-10-13T10:30:00,pth,1.20
2022-10-13T10:32:00,pth,1.20
2022-10-13T10:33:00,pth,1.20
2022-10-13T10:35:00,pth,1.20
2022-10-13T10:36:00,pth,1.20
2022-10-13T10:37:00,pth,1.20
2022-10-13T10:39:00,pth,1.20
2022-10-13T10:40:00,pth,1.20
2022-10-13T10:41:00,pth,1.20
2022-10-13T10:43:00,pth,2.40
2022-10-13T10:45:00,pth,1.20
2022-10-13T10:47:00,pth,1.20
2022-10-13T10:49:00,pth,2.40
2022-10-13T10:51:00,pth,1.20
2022-10-13T10:53:00,pth,2.40
2022-10-13T10:55:00,pth,2.40
2022-10-13T10:57:00,pth,1.20
2022-10-13T10:58:00,pth,1.20
2022-10-13T11:00:00,pth,2.40
2022-10-13T11:02:00,pth,1.20
2022-10-13T11:06:00,pth,1.20
2022-10-13T11:08:00,pth,2.40
2022-10-13T11:11:00,pth,1.20
2022-10-13T11:13:00,pth,1.20
2022-10-13T11:15:00,pth,2.40
2022-10-13T11:16:00,pth,2.40
2022-10-13T11:18:00,pth,2.40
2022-10-13T11:20:00,pth,1.20
2022-10-13T11:22:00,pth,1.20
2022-10-13T11:24:00,pth,2.40
2022-10-13T11:27:00,pth,2.40
2022-10-13T11:29:00,pth,1.20
2022-10-13T11:30:00,pth,1.20
2022-10-13T11:33:00,pth,2.40
2022-10-13T11:35:00,pth,1.20
2022-10-13T11:37:00,pth,1.20
2022-10-13T11:39:00,pth,1.20
2022-10-13T11:41:00,pth,1.20
2022-10-13T11:43:00,pth,1.20
2022-10-13T11:45:00,pth,1.20
2022-10-13T11:47:00,pth,1.20
2022-10-13T11:49:00,pth,1.20
2022-10-13T11:51:00,pth,1.20
2022-10-13T11:52:00,pth,1.20
2022-10-13T11:55:00,pth,1.20
2022-10-13T11:57:00,pth,1.20
2022-10-13T11:58:00,pth,1.20
2022-10-13T12:00:00,pth,1.20
2022-10-13T12:02:00,pth,1.20
2022-10-13T12:04:00,pth,1.20
2022-10-13T12:06:00,pth,1.20
2022-10-13T12:08:00,pth,1.20
2022-10-13T12:10:00,pth,1.20
2022-10-13T12:12:00,pth,1.20
2022-10-13T12:13:00,pth,1.20
2022-10-13T12:15:00,pth,1.20
2022-10-13T12:18:00,pth,1.20
2022-10-13T12:20:00,pth,1.20
2022-10-13T12:24:00,pth,2.40
2022-10-13T12:26:00,pth,1.20
2022-10-13T12:27:00,pth,1.20
2022-10-13T12:29:00,pth,3.60
2022-10-13T12:31:00,pth,2.40
2022-10-13T12:33:00,pth,3.60
2022-10-13T12:35:00,pth,1.20
2022-10-13T12:37:00,pth,1.20
2022-10-13T12:39:00,pth,2.40
2022-10-13T12:41:00,pth,1.20
2022-10-13T12:42:00,pth,1.20
2022-10-13T12:43:00,pth,1.20
2022-10-13T12:45:00,pth,1.20
2022-10-13T12:47:00,pth,1.20
2022-10-13T12:49:00,pth,2.40
2022-10-13T12:52:00,pth,2.40
2022-10-13T12:54:00,pth,2.40
2022-10-13T12:56:00,pth,1.20
2022-10-13T12:58:00,pth,2.40
2022-10-13T13:00:00,pth,1.20
2022-10-13T13:01:00,pth,1.20
2022-10-13T13:03:00,pth,1.20
2022-10-13T13:06:00,pth,2.40
2022-10-13T13:08:00,pth,1.20
2022-10-13T13:10:00,pth,1.20
2022-10-13T13:14:00,pth,1.20
2022-10-13T13:16:00,pth,1.20
2022-10-13T13:18:00,pth,2.40
2022-10-13T13:20:00,pth,1.20
2022-10-13T13:22:00,pth,1.20
2022-10-13T13:24:00,pth,1.20
2022-10-13T13:26:00,pth,2.40
2022-10-13T13:29:00,pth,1.20
2022-10-13T13:31:00,pth,2.40
2022-10-13T13:33:00,pth,1.20
2022-10-13T13:34:00,pth,1.20
2022-10-13T13:37:00,pth,1.20
2022-10-13T13:38:00,pth,1.20
2022-10-13T13:40:00,pth,1.20
2022-10-13T13:42:00,pth,1.20
2022-10-13T13:45:00,pth,1.20
2022-10-13T13:48:00,pth,1.20
2022-10-13T13:50:00,pth,1.20
2022-10-13T13:52:00,pth,1.20
2022-10-13T13:54:00,pth,1.20
2022-10-13T13:55:00,pth,1.20
2022-10-13T13:59:00,pth,1.20
2022-10-13T14:01:00,pth,1.20
2022-10-13T14:03:00,pth,1.20
2022-10-13T14:05:00,pth,1.20
2022-10-13T14:07:00,pth,1.20
2022-10-13T14:09:00,pth,2.40
2022-10-13T14:11:00,pth,1.20
2022-10-13T14:14:00,pth,2.40
2022-10-13T14:16:00,pth,1.20
2022-10-13T14:17:00,pth,1.20
2022-10-13T14:20:00,pth,1.20
2022-10-13T14:22:00,pth,2.40
2022-10-13T14:24:00,pth,1.20
2022-10-13T14:26:00,pth,1.20
2022-10-13T14:28:00,pth,1.20
2022-10-13T14:31:00,pth,1.20
2022-10-13T14:33:00,pth,2.40
2022-10-13T14:35:00,pth,1.20
2022-10-13T14:38:00,pth,1.20
2022-10-13T14:40:00,pth,1.20
2022-10-13T14:42:00,pth,1.20
2022-10-13T14:44:00,pth,1.20
2022-10-13T14:46:00,pth,1.20
2022-10-13T14:48:00,pth,1.20
2022-10-13T14:51:00,pth,2.40
2022-10-13T14:53:00,pth,1.20
2022-10-13T14:55:00,pth,1.20
2022-10-13T14:57:00,pth,2.40
2022-10-13T14:59:00,pth,1.20
2022-10-13T15:02:00,pth,1.20
2022-10-13T15:03:00,pth,1.20
2022-10-13T15:04:00,pth,2.40
2022-10-13T15:06:00,pth,1.20
2022-10-13T15:08:00,pth,1.20
2022-10-13T15:10:00,pth,2.40
2022-10-13T15:12:00,pth,1.20
2022-10-13T15:14:00,pth,1.20
2022-10-13T15:16:00,pth,1.20
2022-10-13T15:18:00,pth,1.20
2022-10-13T15:20:00,pth,1.20
2022-10-13T15:22:00,pth,1.20
2022-10-13T15:24:00,pth,1.20
2022-10-13T15:26:00,pth,1.20
2022-10-13T15:28:00,pth,1.20
2022-10-13T15:30:00,pth,1.20
2022-10-13T15:32:00,pth,1.20
2022-10-13T15:34:00,pth,1.20
2022-10-13T15:36:00,pth,1.20
2022-10-13T15:38:00,pth,1.20
2022-10-13T15:39:00,pth,1.20
2022-10-13T15:41:00,pth,1.20
2022-10-13T15:43:00,pth,1.20
2022-10-13T15:46:00,pth,2.40
2022-10-13T15:48:00,pth,1.20
2022-10-13T15:50:00,pth,1.20
2022-10-13T15:52:00,pth,1.20
2022-10-13T15:54:00,pth,2.40
2022-10-13T15:57:00,pth,1.20
2022-10-13T16:00:00,pth,1.20
2022-10-13T16:01:00,pth,1.20
2022-10-13T16:03:00,pth,1.20
2022-10-13T16:05:00,pth,1.20
2022-10-13T16:08:00,pth,1.20
2022-10-13T16:10:00,pth,2.40
2022-10-13T16:13:00,pth,2.40
2022-10-13T16:15:00,pth,1.20
2022-10-13T16:17:00,pth,1.20
2022-10-13T16:19:00,pth,1.20
2022-10-13T16:21:00,pth,1.20
2022-10-13T16:23:00,pth,1.20
2022-10-13T16:25:00,pth,2.40
2022-10-13T16:27:00,pth,1.20
2022-10-13T16:28:00,pth,1.20
2022-10-13T16:30:00,pth,1.20
2022-10-13T16:32:00,pth,1.20
2022-10-13T16:36:00,pth,1.20
2022-10-13T16:37:00,pth,1.20
2022-10-13T16:39:00,pth,1.20
2022-10-13T16:42:00,pth,1.20
2022-10-13T16:44:00,pth,1.20
2022-10-13T16:45:00,pth,1.20
2022-10-13T16:47:00,pth,1.20
2022-10-13T16:49:00,pth,1.20
2022-10-13T16:51:00,pth,1.20
2022-10-13T16:53:00,pth,1.20
2022-10-13T16:56:00,pth,1.20
2022-10-13T16:58:00,pth,1.20
2022-10-13T17:00:00,pth,1.20
2022-10-13T17:02:00,pth,1.20
2022-10-13T17:04:00,pth,2.40
2022-10-13T17:06:00,pth,1.20
2022-10-13T17:08:00,pth,1.20
2022-10-13T17:10:00,pth,2.40
2022-10-13T17:11:00,pth,2.40
2022-10-13T17:13:00,pth,6.00
2022-10-13T17:14:00,pth,2.40
2022-10-13T17:15:00,pth,2.40
2022-10-13T17:17:00,pth,3.60
2022-10-13T17:18:00,pth,1.20
2022-10-13T17:20:00,pth,2.40
2022-10-13T17:22:00,pth,1.20
2022-10-13T17:24:00,pth,1.20
2022-10-13T17:26:00,pth,2.40
2022-10-13T17:27:00,pth,1.20
2022-10-13T17:28:00,pth,1.20
2022-10-13T17:30:00,pth,2.40
2022-10-13T17:32:00,pth,2.40
2022-10-13T17:33:00,pth,1.20
2022-10-13T17:35:00,pth,3.60
2022-10-13T17:37:00,pth,2.40
2022-10-13T17:38:00,pth,1.20
2022-10-13T17:40:00,pth,1.20
2022-10-13T17:41:00,pth,2.40
2022-10-13T17:43:00,pth,2.40
2022-10-13T17:45:00,pth,2.40
2022-10-13T17:46:00,pth,1.20
2022-10-13T17:48:00,pth,2.40
2022-10-13T17:50:00,pth,1.20
2022-10-13T17:51:00,pth,1.20
2022-10-13T17:53:00,pth,2.40
2022-10-13T17:55:00,pth,2.40
2022-10-13T17:56:00,pth,1.20
2022-10-13T17:58:00,pth,2.40
2022-10-13T18:00:00,pth,1.20
2022-10-13T18:01:00,pth,1.20
2022-10-13T18:02:00,pth,1.20
2022-10-13T18:04:00,pth,2.40
2022-10-13T18:05:00,pth,1.20
2022-10-13T18:07:00,pth,2.40
2022-10-13T18:08:00,pth,1.20
2022-10-13T18:10:00,pth,2.40
2022-10-13T18:12:00,pth,3.60
2022-10-13T18:14:00,pth,2.40
2022-10-13T18:16:00,pth,2.40
2022-10-13T18:18:00,pth,1.20
2022-10-13T18:19:00,pth,1.20
2022-10-13T18:21:00,pth,2.40
2022-10-13T18:23:00,pth,2.40
2022-10-13T18:25:00,pth,2.40
2022-10-13T18:28:00,pth,2.40
2022-10-13T18:30:00,pth,2.40
2022-10-13T18:32:00,pth,1.20
2022-10-13T18:34:00,pth,2.40
2022-10-13T18:36:00,pth,2.40
2022-10-13T18:38:00,pth,2.40
2022-10-13T18:40:00,pth,1.20
2022-10-13T18:41:00,pth,1.20
2022-10-13T18:43:00,pth,2.40
2022-10-13T18:45:00,pth,2.40
2022-10-13T18:48:00,pth,2.40
2022-10-13T18:49:00,pth,1.20
2022-10-13T18:51:00,pth,1.20
2022-10-13T18:52:00,pth,1.20
2022-10-13T18:54:00,pth,2.40
2022-10-13T18:56:00,pth,2.40
2022-10-13T18:58:00,pth,1.20
2022-10-13T19:00:00,pth,2.40
2022-10-13T19:02:00,pth,1.20
2022-10-13T19:04:00,pth,2.40
2022-10-13T19:06:00,pth,1.20
2022-10-13T19:08:00,pth,2.40
2022-10-13T19:11:00,pth,2.40
2022-10-13T19:13:00,pth,2.40
2022-10-13T19:15:00,pth,1.20
2022-10-13T19:17:00,pth,2.40
2022-10-13T19:18:00,pth,1.20
2022-10-13T19:20:00,pth,1.20
2022-10-13T19:21:00,pth,1.20
2022-10-13T19:23:00,pth,2.40
2022-10-13T19:25:00,pth,1.20
2022-10-13T19:27:00,pth,2.40
2022-10-13T19:29:00,pth,1.20
2022-10-13T19:31:00,pth,2.40
2022-10-13T19:33:00,pth,2.40
2022-10-13T19:35:00,pth,1.20
2022-10-13T19:36:00,pth,1.20
2022-10-13T19:38:00,pth,2.40
2022-10-13T19:40:00,pth,2.40
2022-10-13T19:42:00,pth,1.20
2022-10-13T19:44:00,pth,1.20
2022-10-13T19:47:00,pth,2.40
2022-10-13T19:48:00,pth,2.40
2022-10-13T19:50:00,pth,2.40
2022-10-13T19:52:00,pth,1.20
2022-10-13T19:54:00,pth,2.40
2022-10-13T19:56:00,pth,1.20
2022-10-13T19:58:00,pth,2.40
2022-10-13T19:59:00,pth,1.20
2022-10-13T20:01:00,pth,1.20
2022-10-13T20:02:00,pth,1.20
2022-10-13T20:04:00,pth,2.40
2022-10-13T20:06:00,pth,2.40
2022-10-13T20:08:00,pth,2.40
2022-10-13T20:09:00,pth,1.20
2022-10-13T20:11:00,pth,1.20
2022-10-13T20:13:00,pth,2.40
2022-10-13T20:15:00,pth,2.40
2022-10-13T20:17:00,pth,3.60
2022-10-13T20:18:00,pth,1.20
2022-10-13T20:20:00,pth,3.60
2022-10-13T20:22:00,pth,3.60
2022-10-13T20:23:00,pth,1.20
2022-10-13T20:25:00,pth,2.40
2022-10-13T20:27:00,pth,2.40
2022-10-13T20:28:00,pth,1.20
2022-10-13T20:31:00,pth,2.40
2022-10-13T20:32:00,pth,1.20
2022-10-13T20:34:00,pth,2.40
2022-10-13T20:36:00,pth,1.20
2022-10-13T20:38:00,pth,2.40
2022-10-13T20:39:00,pth,1.20
2022-10-13T20:41:00,pth,2.40
2022-10-13T20:42:00,pth,1.20
2022-10-13T20:43:00,pth,2.40
2022-10-13T20:45:00,pth,1.20
2022-10-13T20:47:00,pth,2.40
2022-10-13T20:49:00,pth,2.40
2022-10-13T20:51:00,pth,2.40
2022-10-13T20:53:00,pth,2.40
2022-10-13T20:55:00,pth,2.40
2022-10-13T20:57:00,pth,2.40
2022-10-13T20:58:00,pth,1.20
2022-10-13T21:00:00,pth,2.40
2022-10-13T21:03:00,pth,2.40
2022-10-13T21:05:00,pth,2.40
2022-10-13T21:07:00,pth,2.40
2022-10-13T21:08:00,pth,1.20
2022-10-13T21:09:00,pth,1.20
2022-10-13T21:11:00,pth,2.40
2022-10-13T21:14:00,pth,2.40
2022-10-13T21:16:00,pth,2.40
2022-10-13T21:18:00,pth,2.40
2022-10-13T21:20:00,pth,2.40
2022-10-13T21:21:00,pth,2.40
2022-10-13T21:22:00,pth,1.20
2022-10-13T21:23:00,pth,1.20
2022-10-13T21:25:00,pth,2.40
2022-10-13T21:27:00,pth,3.60
2022-10-13T21:29:00,pth,2.40
2022-10-13T21:31:00,pth,2.40
2022-10-13T21:34:00,pth,2.40
2022-10-13T21:35:00,pth,2.40
2022-10-13T21:37:00,pth,2.40
2022-10-13T21:39:00,pth,2.40
2022-10-13T21:41:00,pth,2.40
2022-10-13T21:43:00,pth,1.20
2022-10-13T21:45:00,pth,2.40
2022-10-13T21:47:00,pth,2.40
2022-10-13T21:49:00,pth,2.40
2022-10-13T21:50:00,pth,1.20
2022-10-13T21:52:00,pth,1.20
2022-10-13T21:54:00,pth,2.40
2022-10-13T21:56:00,pth,2.40
2022-10-13T21:58:00,pth,2.40
2022-10-13T22:00:00,pth,1.20
2022-10-13T22:02:00,pth,2.40
2022-10-13T22:04:00,pth,2.40
2022-10-13T22:05:00,pth,1.20
2022-10-13T22:07:00,pth,2.40
2022-10-13T22:09:00,pth,1.20
2022-10-13T22:11:00,pth,2.40
2022-10-13T22:12:00,pth,1.20
2022-10-13T22:14:00,pth,2.40
2022-10-13T22:16:00,pth,2.40
2022-10-13T22:18:00,pth,2.40
2022-10-13T22:19:00,pth,1.20
2022-10-13T22:21:00,pth,1.20
2022-10-13T22:23:00,pth,2.40
2022-10-13T22:24:00,pth,1.20
2022-10-13T22:26:00,pth,2.40
2022-10-13T22:28:00,pth,1.20
2022-10-13T22:30:00,pth,2.40
2022-10-13T22:32:00,pth,2.40
2022-10-13T22:33:00,pth,1.20
2022-10-13T22:35:00,pth,2.40
2022-10-13T22:37:00,pth,2.40
2022-10-13T22:39:00,pth,2.40
2022-10-13T22:40:00,pth,1.20
2022-10-13T22:42:00,pth,2.40
2022-10-13T22:44:00,pth,1.20
2022-10-13T22:46:00,pth,2.40
2022-10-13T22:48:00,pth,2.40
2022-10-13T22:49:00,pth,1.20
2022-10-13T22:51:00,pth,2.40
2022-10-13T22:52:00,pth,1.20
2022-10-13T22:54:00,pth,2.40
2022-10-13T22:56:00,pth,2.40
2022-10-13T22:58:00,pth,2.40
2022-10-13T22:59:00,pth,1.20
2022-10-13T23:01:00,pth,2.40
2022-10-13T23:02:00,pth,1.20
2022-10-13T23:04:00,pth,2.40
2022-10-13T23:06:00,pth,3.60
2022-10-13T23:08:00,pth,2.40
2022-10-13T23:10:00,pth,1.20
2022-10-13T23:12:00,pth,2.40
2022-10-13T23:14:00,pth,2.40
2022-10-13T23:16:00,pth,1.20
2022-10-13T23:17:00,pth,1.20
2022-10-13T23:19:00,pth,2.40
2022-10-13T23:21:00,pth,1.20
2022-10-13T23:23:00,pth,2.40
2022-10-13T23:24:00,pth,1.20
2022-10-13T23:25:00,pth,1.20
2022-10-13T23:27:00,pth,2.40
2022-10-13T23:28:00,pth,1.20
2022-10-13T23:30:00,pth,1.20
2022-10-13T23:32:00,pth,2.40
2022-10-13T23:34:00,pth,2.40
2022-10-13T23:36:00,pth,3.60
2022-10-13T23:37:00,pth,1.20
2022-10-13T23:39:00,pth,1.20
2022-10-13T23:41:00,pth,2.40
2022-10-13T23:43:00,pth,2.40
2022-10-13T23:45:00,pth,2.40
2022-10-13T23:48:00,pth,2.40
2022-10-13T23:50:00,pth,2.40
2022-10-13T23:52:00,pth,2.40
2022-10-13T23:54:00,pth,2.40
2022-10-13T23:56:00,pth,2.40
2022-10-13T23:58:00,pth,2.40
2022-10-13T23:59:00,pth,1.20
